LiveATC.Net - Listen to live air traffic control over the Internet!


ICAO: RCTP  IATA: TPE   Airport: Taiwan Taoyuan International Airport
City: Taipei
Country: Taiwan   Continent: Asia
RCTP METAR Weather: RCTP 261230Z 25014KT 9999 FEW015 BKN120 28/25 Q1007 NOSIG RMK A2975
RCTP Flight Activity (FlightAware)

RCTP Approach
Feed Status: DOWN
Last heard on: 2020-05-26 02:35:23 (0 days 10 hours 45 minutes ago)
Archive Access: RCTP Approach
FacilityFrequency
Emergency/Guard121.500
Taipei Approach125.100
Taipei Approach125.600
Taipei Approach128.500

RCTP Tower
Feed Status: DOWN
Last heard on: 2020-05-26 02:35:23 (0 days 10 hours 45 minutes ago)
Archive Access: RCTP Tower
FacilityFrequency
Taipei Tower118.700

NOTICE

Unauthorized use prohibited. See LiveATC.net Terms of Service


Airport/ARTCC Code
Frequency Search
(e.g., 124.400, 128.75)
Site-wide search
 


Browse Feeds
Top 50 Feeds
Coverage Map
Bad Weather Areas

LiveATC FAQ
Offer LiveATC feed
Contact LiveATC.net
Press Inquiries

LiveATC on iPhone
LiveATC on Android

Windows Phone
Windows 8/10

LiveATC Mobile
(Mobile browser)

ATC Audio Archives
Interesting Recordings

LiveATC Forums


Home Page
About LiveATC.net
Make a Donation
Terms of Use
Privacy Policy

Canadian Air Freqs

AIRMETs/SIGMETs

FAA Airport Status
Nat'l Airspace Status
Arrival Demand Charts


Server Software By:
Icecast.org
Liquidsoap